モーリー-アタール彗星

C/2021 X1 ( Maury-Attard )

English version
Home page
Updated on May 27, 2025

---------------------------------------------------------------------

・ プロフィール

発見日 2021年12月2日
発見光度 19.0等
発見者 Alain Maury and Georges Attard (Maury, Attard, Parrott (MAP) survey project)

・ 写真集

・ 軌道要素

Epoch 2024 Oct. 17.0 TT = JDT 2460600.5
T 2023 May 27.18045 TT                                  Rudenko
q   3.2339491            (2000.0)            P               Q
z  -0.0001034      Peri.  334.58336     +0.82724327     +0.54931909
 +/-0.0000003      Node    10.59814     +0.55886697     -0.78293057
e   1.0003342      Incl.  140.10172     -0.05776048     +0.29200728
>From 2855 observations 2021 Dec. 2-2024 Sept. 1, mean residual 0".5.

・ 星図

・ 光度変化

        m1 = 6.5 + 5 logΔ + 10.0 log r(t + 50)

---------------------------------------------------------------------

軌道要素はM.P.E.C. 2024-R10に掲載されたものです。
星図はステラナビゲータ Ver.10 (アストロアーツ) で作成したものです。
光度グラフはComet for Windowsで作成したものです。

---------------------------------------------------------------------

Copyright(C) Seiichi Yoshida (comet@aerith.net). All rights reserved.